[[{"header":{"parameterUnit":"m.s-1","parameterCategory":1,"la1":30.2991,"la2":30.254,"lo1":-89.0895,"lo2":-89.0444,"dy":0.0017,"dx":0.0017,"nx":28,"ny":28,"refTime":"2025-01-26T09:00:00:Z","depth":0,"parameterNumber":2,"parameterNumberName":"U-component_of_WINDS"},"data":[0,0,0,0,0,0,0,0,0,0,0,0,0,0,0,0,0,0,0,0,0,0,0,0,0,0,0,0,0,0,0,0,0,0,0,0,0,0,0,0,0,0,0,0,0,0,0,0,0,0,0,0,0,0,0,0,0,0,0.3173,0.3172,0,0.3128,0.3128,0.3127,0.3059,0.3057,0.3056,0.3055,0.3011,0.3011,0.3011,0,0,0,0,0,0,0,0,0,0,0,0,0,0.3201,0.3201,0.3173,0.3172,0.3172,0.3128,0.3128,0.3127,0.3059,0.3057,0.3056,0.3054,0.3011,0.3011,0.3011,0,0,0,0,0,0,0,0,0,0,0,0,0,0.3176,0.3201,0.3173,0.3132,0.3128,0.3129,0.3128,0.3127,0.3059,0.3057,0.3055,0.3054,0.3011,0.3011,0.3011,0.3048,0,0,0.3011,0.3011,0,0,0,0,0,0,0,0,0.3177,0.3175,0.3139,0.3135,0.3131,0.3097,0.3121,0.31,0.306,0.3086,0.3055,0.3053,0.3041,0.3039,0.3034,0.3046,0.3044,0.3011,0.3011,0.3011,0.3011,0,0,0,0,0,0,0,0.3179,0.3176,0.3155,0.3139,0.3133,0.3117,0.3111,0.3117,0.3074,0.3083,0.3078,0.3074,0.3039,0.3035,0.3033,0.3043,0.3011,0.3011,0.3011,0.3011,0.3084,0.3085,0,0,0,0,0,0,0.3187,0.3178,0.3157,0.3154,0.315,0.3118,0.3112,0.311,0.3074,0.3067,0.3075,0.3071,0.3035,0.3033,0.3031,0.3073,0.3011,0.3011,0.3011,0.3082,0.3084,0.3086,0,0,0,0,0,0,0.3187,0.3185,0.3159,0.3165,0.316,0.312,0.3118,0.311,0.3106,0.3068,0.306,0.3079,0.3034,0.3031,0.3044,0.307,0.3011,0.3011,0.3079,0.3082,0.3085,0.3156,0,0,0,0,0,0,0.3189,0.3186,0.3199,0.3166,0.316,0.3172,0.3119,0.311,0.3106,0.3099,0.3069,0.3063,0.3032,0.3045,0.3044,0.3069,0.3011,0.3077,0.3081,0.3084,0.3152,0.3161,0.317,0,0,0,0,0,0.319,0.3221,0.32,0.3198,0.3175,0.3174,0.3171,0.3135,0.3108,0.3121,0.3097,0.3064,0.3067,0.3047,0.3045,0.3071,0.3075,0.308,0.3084,0.3147,0.3159,0.317,0,0,0,0,0,0,0.3259,0.3216,0.3192,0.3213,0.3198,0.3162,0.3178,0.3148,0.314,0.3135,0.309,0.3084,0.3104,0.3088,0.3066,0.3105,0.3066,0.307,0.3115,0.3126,0.3135,0.3139,0.3011,0,0,0,0,0,0.3277,0.3279,0.3241,0.3263,0.3257,0.3219,0.3217,0.319,0.3172,0.3166,0.3142,0.3127,0.3125,0.3124,0.312,0.3148,0.3142,0.3165,0.3175,0.3182,0.3187,0.3203,0.3213,0.3101,0.3101,0.31,0,0,0.3314,0.329,0.3294,0.3277,0.3261,0.3265,0.3214,0.3219,0.3222,0.3167,0.3178,0.3161,0.314,0.3162,0.317,0.315,0.3217,0.3188,0.3194,0.3195,0.3208,0.3219,0.3228,0.3104,0.3103,0.3103,0,0,0.3383,0.3365,0.3382,0.3368,0.3345,0.332,0.3324,0.3293,0.3279,0.329,0.3249,0.3251,0.3248,0.3236,0.3229,0.3294,0.3264,0.3294,0.3342,0.3358,0.3367,0.3375,0.3399,0.3409,0.3299,0.3299,0.3299,0,0.3432,0.3435,0.3395,0.3403,0.3397,0.3347,0.3365,0.3353,0.3331,0.3328,0.3305,0.3301,0.3283,0.3302,0.3318,0.3314,0.3318,0.3298,0.3369,0.3376,0.3383,0.3406,0.3415,0.3303,0.3302,0.3302,0.3302,0,0.3497,0.35,0.3516,0.3496,0.3492,0.3505,0.3468,0.3468,0.3442,0.342,0.3432,0.3409,0.34,0.3402,0.3377,0.3418,0.3406,0.3377,0.3337,0.3398,0.3419,0.3428,0.3308,0.3307,0.3306,0.3305,0,0,0.3609,0.3566,0.3573,0.3564,0.3535,0.3537,0.3549,0.3539,0.3542,0.3528,0.3537,0.3536,0.3508,0.3501,0.3474,0.3487,0.3542,0.3456,0.3455,0.3474,0.3588,0.3611,0.3622,0.3521,0.3523,0.3524,0.359,0,0.3673,0.369,0.3654,0.368,0.3683,0.3636,0.3645,0.363,0.3609,0.3609,0.3586,0.3587,0.355,0.3545,0.3556,0.3533,0.3565,0.3528,0.3531,0.3531,0.3539,0.3633,0.3658,0.3721,0.3598,0.3599,0.36,0,0.3751,0.3741,0.3767,0.3738,0.3738,0.3748,0.3737,0.3738,0.3719,0.3703,0.3695,0.3663,0.3673,0.3634,0.3648,0.3624,0.3623,0.3612,0.3613,0.3613,0.3571,0.3637,0.374,0.3751,0.3612,0.3611,0.3611,0,0.3832,0.3825,0.384,0.3834,0.38,0.3808,0.3795,0.3774,0.3771,0.3762,0.376,0.3752,0.3748,0.3743,0.371,0.3684,0.3729,0.3686,0.3717,0.3718,0.373,0.373,0.3836,0.3727,0.3727,0.3727,0.3726,0,0.3909,0.3927,0.3877,0.3886,0.3905,0.3865,0.3885,0.3867,0.3849,0.3855,0.3813,0.3819,0.3775,0.3777,0.3751,0.3768,0.3766,0.3754,0.3747,0.3759,0.3761,0.3759,0.3754,0.3729,0.3729,0.3728,0.3728,0,0.4003,0.397,0.3983,0.395,0.3942,0.3958,0.3931,0.3939,0.3915,0.3923,0.3923,0.3886,0.3886,0.3853,0.3846,0.3829,0.3857,0.3841,0.3863,0.3859,0.3892,0.389,0.4002,0.4015,0.3897,0.3898,0.3899,0,0.4055,0.4068,0.4036,0.4037,0.4025,0.4027,0.4024,0.3984,0.3983,0.3963,0.3974,0.3971,0.3966,0.3969,0.3942,0.3937,0.3922,0.3962,0.3921,0.3933,0.3925,0.3925,0.3927,0.3971,0.3972,0.3973,0.3974,0,0.415,0.4134,0.413,0.4122,0.412,0.4111,0.41,0.4103,0.406,0.4061,0.406,0.4057,0.405,0.4048,0.4038,0.4025,0.3993,0.3987,0.3994,0.4007,0.402,0.4015,0.3888,0.3985,0.3984,0.3983,0.3983,0.3982,0.4226,0.4236,0.4215,0.4214,0.4201,0.4192,0.4198,0.4176,0.4175,0.4166,0.4143,0.4147,0.4129,0.4112,0.4102,0.4105,0.4085,0.4095,0.4098,0.4102,0.4109,0.4018,0.4103,0.4102,0.4102,0.4102,0.4102,0,0.4321,0.4305,0.4304,0.429,0.4289,0.4259,0.4245,0.4247,0.4251,0.4236,0.4233,0.4233,0.4231,0.4205,0.4199,0.4207,0.4193,0.4207,0.4207,0.4205,0.4126,0.4121,0.4219,0.4219,0.4219,0.4219,0.4219,0.4219,0.437,0.4386,0.4367,0.4376,0.436,0.4364,0.4359,0.4351,0.4339,0.4342,0.434,0.4322,0.4303,0.4297,0.4294,0.4286,0.4287,0.4307,0.4295,0.4222,0.421,0.42,0.4195,0.4307,0.4307,0.4374,0.4375,0.4375]},{"header":{"parameterUnit":"m.s-1","parameterCategory":1,"la1":30.2991,"la2":30.254,"lo1":-89.0895,"lo2":-89.0444,"dy":0.0017,"dx":0.0017,"nx":28,"ny":28,"refTime":"2025-01-26T09:00:00:Z","depth":0,"parameterNumber":3,"parameterNumberName":"V-component_of_WINDS"},"data":[0,0,0,0,0,0,0,0,0,0,0,0,0,0,0,0,0,0,0,0,0,0,0,0,0,0,0,0,0,0,0,0,0,0,0,0,0,0,0,0,0,0,0,0,0,0,0,0,0,0,0,0,0,0,0,0,0,0,2.9062,2.9062,0,2.9152,2.9153,2.9154,2.9159,2.9158,2.9157,2.9156,2.9249,2.9253,2.9256,0,0,0,0,0,0,0,0,0,0,0,0,0,2.8896,2.8899,2.9061,2.9063,2.9064,2.9151,2.9153,2.9154,2.9159,2.9158,2.9157,2.9156,2.9248,2.9252,2.9256,0,0,0,0,0,0,0,0,0,0,0,0,0,2.8975,2.89,2.9061,2.9077,2.9079,2.9151,2.9153,2.9154,2.916,2.9158,2.9157,2.9155,2.9247,2.9252,2.9257,2.9319,0,0,2.9273,2.9275,0,0,0,0,0,0,0,0,2.8971,2.8981,2.9074,2.9076,2.9079,2.9143,2.9128,2.921,2.916,2.9129,2.9156,2.9154,2.9215,2.9223,2.9243,2.9324,2.9328,2.9273,2.9276,2.9278,2.928,0,0,0,0,0,0,0,2.8965,2.8977,2.9097,2.9075,2.9078,2.908,2.909,2.9144,2.918,2.9132,2.9132,2.9143,2.9216,2.9238,2.9245,2.9329,2.9273,2.9277,2.9281,2.9283,2.9467,2.9469,0,0,0,0,0,0,2.8956,2.8973,2.9094,2.91,2.902,2.9084,2.9095,2.9124,2.9179,2.9186,2.9144,2.9143,2.923,2.9239,2.9249,2.9327,2.9278,2.9283,2.9286,2.9465,2.9468,2.947,0,0,0,0,0,0,2.8953,2.8967,2.9091,2.9036,2.9052,2.9089,2.9121,2.9126,2.9148,2.9188,2.9195,2.916,2.9229,2.9241,2.9302,2.933,2.9285,2.929,2.9463,2.9466,2.9469,2.9482,0,0,0,0,0,0,2.8948,2.8966,2.899,2.9037,2.9055,2.9142,2.9123,2.9129,2.9157,2.9156,2.9205,2.9211,2.9229,2.9294,2.9307,2.9336,2.9294,2.9461,2.9465,2.9468,2.948,2.9485,2.949,0,0,0,0,0,2.8942,2.899,2.8991,2.9005,2.9086,2.9144,2.9154,2.9173,2.9159,2.9184,2.921,2.921,2.9324,2.93,2.9315,2.9346,2.9459,2.9464,2.9467,2.9477,2.9484,2.949,0,0,0,0,0,0,2.8945,2.8996,2.8998,2.9062,2.9099,2.9145,2.9176,2.918,2.9221,2.9218,2.924,2.9251,2.9312,2.9335,2.9307,2.941,2.939,2.9398,2.9393,2.94,2.9405,2.9399,2.9298,0,0,0,0,0,2.8953,2.8996,2.9038,2.9091,2.9109,2.9139,2.9165,2.9177,2.9216,2.9231,2.9261,2.9299,2.9344,2.9373,2.9416,2.9483,2.9494,2.9511,2.9516,2.9521,2.9527,2.9565,2.9574,2.9483,2.9483,2.9483,0,0,2.897,2.9004,2.9029,2.9092,2.9122,2.9166,2.9152,2.92,2.9233,2.9238,2.9298,2.9322,2.9365,2.943,2.9459,2.9451,2.9554,2.9526,2.9529,2.9533,2.957,2.9579,2.9586,2.9486,2.9485,2.9485,0,0,2.9025,2.9054,2.9101,2.9131,2.9176,2.9196,2.9207,2.9253,2.9269,2.9329,2.9334,2.9375,2.9451,2.9482,2.9508,2.9575,2.9577,2.9588,2.9616,2.9653,2.966,2.9667,2.9692,2.97,2.9594,2.9594,2.9594,0,2.9041,2.9107,2.9125,2.9173,2.9201,2.9208,2.9257,2.9285,2.9342,2.9362,2.9351,2.9447,2.9477,2.9549,2.9566,2.9586,2.9601,2.9583,2.9657,2.9664,2.9671,2.9695,2.9704,2.9595,2.9595,2.9595,2.9595,0,2.9125,2.9171,2.9205,2.9259,2.9291,2.9339,2.9366,2.9396,2.9404,2.9425,2.9487,2.9523,2.9574,2.9592,2.9601,2.9666,2.966,2.9653,2.9634,2.968,2.9703,2.9713,2.9597,2.9597,2.9596,2.9596,0,0,2.9185,2.9249,2.9261,2.9287,2.9337,2.9373,2.9422,2.9472,2.9498,2.9536,2.9579,2.9643,2.9638,2.9667,2.9679,2.9712,2.9764,2.9701,2.9703,2.9713,2.984,2.9846,2.9856,2.9765,2.9767,2.9769,2.9837,0,2.9246,2.9332,2.935,2.9425,2.9469,2.9476,2.9519,2.9554,2.9576,2.9616,2.964,2.9686,2.9674,2.9692,2.9724,2.9751,2.979,2.9746,2.9806,2.9808,2.9796,2.9868,2.9874,2.9937,2.9846,2.9847,2.9848,0,2.9329,2.937,2.9449,2.9494,2.9513,2.9551,2.9599,2.9637,2.9678,2.9692,2.9725,2.9734,2.9785,2.9763,2.9835,2.9805,2.983,2.9847,2.985,2.9857,2.9832,2.9879,2.9957,2.9967,2.9863,2.9861,2.986,0,2.9366,2.9441,2.9498,2.952,2.9573,2.96,2.9624,2.9663,2.9693,2.9734,2.9754,2.9801,2.9827,2.9864,2.9886,2.9867,2.9957,2.9936,2.997,2.997,2.999,2.9989,3.0075,3.0004,3.0004,3.0003,3.0003,0,2.9433,2.9482,2.9516,2.9551,2.9607,2.9627,2.9681,2.9705,2.974,2.9781,2.9789,2.9828,2.9854,2.9896,2.9913,2.9971,2.9982,2.9995,3.0,2.9996,2.9994,3.0014,3.001,3.0006,3.0005,3.0005,3.0005,0,2.9484,2.9509,2.9572,2.9618,2.9631,2.967,2.9709,2.9744,2.9765,2.9817,2.9831,2.9864,2.9914,2.994,3.0002,3.0014,3.008,3.008,3.0066,3.0068,3.0102,3.0099,3.0204,3.022,3.0137,3.0138,3.0139,0,2.9526,2.9564,2.9614,2.9642,2.9666,2.971,2.974,2.9762,2.9793,2.9843,2.9872,2.9923,2.9965,3.0045,3.0075,3.0123,3.0126,3.016,3.0133,3.0128,3.0128,3.0127,3.0131,3.0165,3.0166,3.0166,3.0167,0,2.9599,2.9609,2.9651,2.9699,2.9734,2.9772,2.981,2.9832,2.986,2.9895,2.9946,2.9978,3.0042,3.0093,3.0143,3.0168,3.0173,3.0175,3.0185,3.0182,3.0173,3.018,3.008,3.0172,3.0172,3.0171,3.0171,3.0171,2.9648,2.9682,2.9722,2.977,2.98,2.9836,2.9871,2.9897,2.994,2.9994,3.0004,3.0059,3.01,3.0168,3.0194,3.0238,3.0231,3.0246,3.025,3.0254,3.0257,3.0165,3.0247,3.0247,3.0247,3.0247,3.0247,0,2.9722,2.9748,2.9791,2.9844,2.9882,2.9882,2.9924,2.9955,3.0003,3.0041,3.0082,3.0141,3.019,3.0225,3.0275,3.0303,3.0307,3.0316,3.0315,3.0321,3.0259,3.0246,3.0312,3.0312,3.0312,3.0312,3.0312,3.0312,2.9765,2.9823,2.9839,2.9913,2.9939,2.9992,3.0017,3.005,3.008,3.0146,3.0187,3.0208,3.0245,3.0298,3.0344,3.0352,3.0371,3.0381,3.039,3.0332,3.0325,3.0318,3.0306,3.0384,3.0384,3.0448,3.0449,3.0449]}]]